Time,TemperatureF,DewpointF,PressureIn,WindDirection,WindDirectionDegrees,WindSpeedMPH,WindSpeedGustMPH,Humidity,HourlyPrecipIn,Conditions,Clouds,dailyrainin,SoftwareType,DateUTC
2013-09-14 00:00:00,75.6,36.2,29.96,WNW,284,0.0,5.0,24,0.00,,,0.00,Wunderground v.1.15,2013-09-14 07:00:00,
2013-09-14 00:10:00,74.7,36.5,29.97,WNW,284,0.0,5.0,25,0.00,,,0.00,Wunderground v.1.15,2013-09-14 07:10:00,
2013-09-14 00:15:00,74.7,36.5,29.97,WNW,284,0.0,5.0,25,0.00,,,0.00,Wunderground v.1.15,2013-09-14 07:15:00,
2013-09-14 00:20:00,74.6,37.4,29.97,WNW,284,0.0,4.0,26,0.00,,,0.00,Wunderground v.1.15,2013-09-14 07:20:00,
2013-09-14 00:30:00,74.2,37.1,29.97,WNW,284,0.0,4.0,26,0.00,,,0.00,Wunderground v.1.15,2013-09-14 07:30:00,
2013-09-14 00:35:00,74.3,37.2,29.97,WNW,284,0.0,4.0,26,0.00,,,0.00,Wunderground v.1.15,2013-09-14 07:35:00,
2013-09-14 00:45:00,73.9,36.8,29.97,WNW,284,0.0,0.0,26,0.00,,,0.00,Wunderground v.1.15,2013-09-14 07:45:00,
2013-09-14 00:50:00,74.0,37.9,29.97,WNW,284,0.0,0.0,27,0.00,,,0.00,Wunderground v.1.15,2013-09-14 07:50:00,
2013-09-14 01:00:00,73.6,37.5,29.96,WNW,284,0.0,0.0,27,0.00,,,0.00,Wunderground v.1.15,2013-09-14 08:00:00,
2013-09-14 01:05:00,73.5,38.4,29.96,WNW,284,0.0,2.0,28,0.00,,,0.00,Wunderground v.1.15,2013-09-14 08:05:00,
2013-09-14 01:15:00,73.2,38.1,29.96,WNW,284,0.0,0.0,28,0.00,,,0.00,Wunderground v.1.15,2013-09-14 08:15:00,
2013-09-14 01:20:00,73.3,38.2,29.96,WNW,284,0.0,1.0,28,0.00,,,0.00,Wunderground v.1.15,2013-09-14 08:20:00,
2013-09-14 01:25:00,73.3,38.2,29.96,WNW,283,0.0,1.0,28,0.00,,,0.00,Wunderground v.1.15,2013-09-14 08:25:00,
2013-09-14 01:35:00,73.1,38.0,29.96,West,277,2.0,5.0,28,0.00,,,0.00,Wunderground v.1.15,2013-09-14 08:35:00,
2013-09-14 01:45:00,73.6,38.5,29.96,West,276,1.0,2.0,28,0.00,,,0.00,Wunderground v.1.15,2013-09-14 08:45:00,
2013-09-14 01:50:00,73.4,38.3,29.96,West,276,1.0,6.0,28,0.00,,,0.00,Wunderground v.1.15,2013-09-14 08:50:00,
2013-09-14 02:00:00,72.4,38.3,29.96,West,275,1.0,6.0,29,0.00,,,0.00,Wunderground v.1.15,2013-09-14 09:00:00,
2013-09-14 02:05:00,72.4,38.3,29.96,West,275,1.0,6.0,29,0.00,,,0.00,Wunderground v.1.15,2013-09-14 09:05:00,
2013-09-14 02:15:00,73.1,38.9,29.95,West,273,1.0,4.0,29,0.00,,,0.00,Wunderground v.1.15,2013-09-14 09:15:00,
2013-09-14 02:20:00,73.2,39.0,29.95,West,273,1.0,1.0,29,0.00,,,0.00,Wunderground v.1.15,2013-09-14 09:20:00,
2013-09-14 02:25:00,72.6,39.4,29.95,West,273,0.0,5.0,30,0.00,,,0.00,Wunderground v.1.15,2013-09-14 09:25:00,
2013-09-14 02:30:00,71.8,38.7,29.95,West,273,0.0,5.0,30,0.00,,,0.00,Wunderground v.1.15,2013-09-14 09:30:00,
2013-09-14 02:40:00,72.0,38.9,29.95,West,273,0.0,5.0,30,0.00,,,0.00,Wunderground v.1.15,2013-09-14 09:40:00,
2013-09-14 02:45:00,71.8,38.7,29.95,West,273,0.0,5.0,30,0.00,,,0.00,Wunderground v.1.15,2013-09-14 09:45:00,
2013-09-14 02:50:00,71.7,38.6,29.95,West,273,0.0,5.0,30,0.00,,,0.00,Wunderground v.1.15,2013-09-14 09:50:00,
2013-09-14 03:00:00,72.6,38.5,29.95,West,273,1.0,1.0,29,0.00,,,0.00,Wunderground v.1.15,2013-09-14 10:00:00,
2013-09-14 03:05:00,73.0,38.9,29.95,West,273,1.0,5.0,29,0.00,,,0.00,Wunderground v.1.15,2013-09-14 10:05:00,
2013-09-14 03:15:00,73.3,38.2,29.95,West,275,1.0,5.0,28,0.00,,,0.00,Wunderground v.1.15,2013-09-14 10:15:00,
2013-09-14 03:20:00,73.3,38.2,29.94,West,274,2.0,5.0,28,0.00,,,0.00,Wunderground v.1.15,2013-09-14 10:20:00,
2013-09-14 03:25:00,73.2,39.0,29.94,West,272,2.0,5.0,29,0.00,,,0.00,Wunderground v.1.15,2013-09-14 10:25:00,
2013-09-14 03:35:00,72.6,38.5,29.94,West,268,3.0,6.0,29,0.00,,,0.00,Wunderground v.1.15,2013-09-14 10:35:00,
2013-09-14 03:45:00,73.1,38.9,29.94,West,268,2.0,6.0,29,0.00,,,0.00,Wunderground v.1.15,2013-09-14 10:45:00,
2013-09-14 03:50:00,73.1,38.9,29.94,West,266,2.0,6.0,29,0.00,,,0.00,Wunderground v.1.15,2013-09-14 10:50:00,
2013-09-14 04:00:00,72.8,38.7,29.94,West,267,4.0,4.0,29,0.00,,,0.00,Wunderground v.1.15,2013-09-14 11:00:00,
2013-09-14 04:05:00,72.6,39.4,29.94,West,268,2.0,8.0,30,0.00,,,0.00,Wunderground v.1.15,2013-09-14 11:05:00,
2013-09-14 04:15:00,72.1,38.9,29.94,West,277,1.0,8.0,30,0.00,,,0.00,Wunderground v.1.15,2013-09-14 11:15:00,
2013-09-14 04:20:00,72.2,39.0,29.94,West,277,0.0,8.0,30,0.00,,,0.00,Wunderground v.1.15,2013-09-14 11:20:00,
2013-09-14 04:25:00,72.2,39.0,29.94,West,277,0.0,8.0,30,0.00,,,0.00,Wunderground v.1.15,2013-09-14 11:25:00,
2013-09-14 04:30:00,72.1,39.8,29.94,West,277,0.0,8.0,31,0.00,,,0.00,Wunderground v.1.15,2013-09-14 11:30:00,
2013-09-14 04:40:00,72.2,39.9,29.95,West,277,0.0,8.0,31,0.00,,,0.00,Wunderground v.1.15,2013-09-14 11:40:00,
2013-09-14 04:45:00,72.6,39.4,29.95,West,277,0.0,8.0,30,0.00,,,0.00,Wunderground v.1.15,2013-09-14 11:45:00,
2013-09-14 04:50:00,72.6,39.4,29.95,West,277,0.0,6.0,30,0.00,,,0.00,Wunderground v.1.15,2013-09-14 11:50:00,
2013-09-14 05:00:00,72.0,39.7,29.95,West,277,0.0,6.0,31,0.00,,,0.00,Wunderground v.1.15,2013-09-14 12:00:00,
2013-09-14 05:05:00,72.0,39.7,29.95,West,277,0.0,6.0,31,0.00,,,0.00,Wunderground v.1.15,2013-09-14 12:05:00,
2013-09-14 05:10:00,72.2,39.9,29.95,West,277,1.0,1.0,31,0.00,,,0.00,Wunderground v.1.15,2013-09-14 12:10:00,
2013-09-14 05:20:00,72.2,39.9,29.95,West,273,1.0,5.0,31,0.00,,,0.00,Wunderground v.1.15,2013-09-14 12:20:00,
2013-09-14 05:30:00,72.1,39.8,29.95,West,275,3.0,5.0,31,0.00,,,0.00,Wunderground v.1.15,2013-09-14 12:30:00,
2013-09-14 05:35:00,72.0,39.7,29.95,West,273,2.0,6.0,31,0.00,,,0.00,Wunderground v.1.15,2013-09-14 12:35:00,
2013-09-14 05:45:00,72.1,39.8,29.95,West,273,1.0,6.0,31,0.00,,,0.00,Wunderground v.1.15,2013-09-14 12:45:00,
2013-09-14 05:50:00,72.0,40.5,29.95,West,273,0.0,6.0,32,0.00,,,0.00,Wunderground v.1.15,2013-09-14 12:50:00,
2013-09-14 06:00:00,71.6,40.2,29.96,West,273,0.0,6.0,32,0.00,,,0.00,Wunderground v.1.15,2013-09-14 13:00:00,
2013-09-14 06:10:00,70.8,40.3,29.96,West,273,0.0,6.0,33,0.00,,,0.00,Wunderground v.1.15,2013-09-14 13:10:00,
2013-09-14 06:15:00,70.3,40.6,29.96,West,273,0.0,6.0,34,0.00,,,0.00,Wunderground v.1.15,2013-09-14 13:15:00,
2013-09-14 06:20:00,70.4,39.9,29.96,West,273,0.0,5.0,33,0.00,,,0.00,Wunderground v.1.15,2013-09-14 13:20:00,
2013-09-14 06:30:00,71.6,40.2,29.96,WNW,291,1.0,5.0,32,0.00,,,0.00,Wunderground v.1.15,2013-09-14 13:30:00,
2013-09-14 06:35:00,71.7,40.3,29.96,WNW,291,2.0,5.0,32,0.00,,,0.00,Wunderground v.1.15,2013-09-14 13:35:00,
2013-09-14 06:45:00,72.3,40.0,29.97,WNW,291,2.0,5.0,31,0.00,,,0.00,Wunderground v.1.15,2013-09-14 13:45:00,
2013-09-14 06:50:00,72.0,40.5,29.97,WNW,291,1.0,1.0,32,0.00,,,0.00,Wunderground v.1.15,2013-09-14 13:50:00,
2013-09-14 06:55:00,71.5,40.9,29.97,WNW,291,0.0,5.0,33,0.00,,,0.00,Wunderground v.1.15,2013-09-14 13:55:00,
2013-09-14 07:05:00,72.2,40.7,29.97,West,275,1.0,5.0,32,0.00,,,0.00,Wunderground v.1.15,2013-09-14 14:05:00,
2013-09-14 07:10:00,73.3,40.8,29.97,West,277,3.0,5.0,31,0.00,,,0.00,Wunderground v.1.15,2013-09-14 14:10:00,
2013-09-14 07:20:00,74.7,41.2,29.98,West,264,3.0,3.0,30,0.00,,,0.00,Wunderground v.1.15,2013-09-14 14:20:00,
2013-09-14 07:30:00,75.8,41.3,29.97,West,262,3.0,6.0,29,0.00,,,0.00,Wunderground v.1.15,2013-09-14 14:30:00,
2013-09-14 07:35:00,76.2,41.6,29.98,West,259,3.0,8.0,29,0.00,,,0.00,Wunderground v.1.15,2013-09-14 14:35:00,
2013-09-14 07:45:00,77.2,41.6,29.98,West,266,2.0,5.0,28,0.00,,,0.00,Wunderground v.1.15,2013-09-14 14:45:00,
2013-09-14 07:50:00,77.6,41.9,29.98,West,264,2.0,2.0,28,0.00,,,0.00,Wunderground v.1.15,2013-09-14 14:50:00,
2013-09-14 07:55:00,78.2,42.4,29.98,West,264,1.0,8.0,28,0.00,,,0.00,Wunderground v.1.15,2013-09-14 14:55:00,
2013-09-14 08:05:00,79.5,42.6,29.98,West,264,0.0,8.0,27,0.00,,,0.00,Wunderground v.1.15,2013-09-14 15:05:00,
2013-09-14 08:15:00,80.9,42.8,29.98,West,263,0.0,8.0,26,0.00,,,0.00,Wunderground v.1.15,2013-09-14 15:15:00,
2013-09-14 08:20:00,81.5,42.3,29.98,West,263,0.0,6.0,25,0.00,,,0.00,Wunderground v.1.15,2013-09-14 15:20:00,
2013-09-14 08:30:00,83.0,41.4,29.98,West,262,0.0,6.0,23,0.00,,,0.00,Wunderground v.1.15,2013-09-14 15:30:00,
2013-09-14 08:35:00,83.4,41.7,29.98,West,262,0.0,6.0,23,0.00,,,0.00,Wunderground v.1.15,2013-09-14 15:35:00,
2013-09-14 08:45:00,83.1,41.5,29.98,South,185,0.0,6.0,23,0.00,,,0.00,Wunderground v.1.15,2013-09-14 15:45:00,
2013-09-14 08:50:00,83.3,41.6,29.98,South,185,0.0,0.0,23,0.00,,,0.00,Wunderground v.1.15,2013-09-14 15:50:00,
2013-09-14 08:55:00,83.7,40.8,29.98,South,185,0.0,0.0,22,0.00,,,0.00,Wunderground v.1.15,2013-09-14 15:55:00,
2013-09-14 09:00:00,83.7,40.8,29.98,South,185,0.0,0.0,22,0.00,,,0.00,Wunderground v.1.15,2013-09-14 16:00:00,
2013-09-14 09:05:00,84.0,41.1,29.98,South,185,0.0,3.0,22,0.00,,,0.00,Wunderground v.1.15,2013-09-14 16:05:00,
2013-09-14 09:15:00,84.4,41.4,29.98,South,175,0.0,3.0,22,0.00,,,0.00,Wunderground v.1.15,2013-09-14 16:15:00,
2013-09-14 09:20:00,84.9,40.6,29.98,South,175,0.0,3.0,21,0.00,,,0.00,Wunderground v.1.15,2013-09-14 16:20:00,
2013-09-14 09:30:00,84.8,40.5,29.98,SSE,160,1.0,1.0,21,0.00,,,0.00,Wunderground v.1.15,2013-09-14 16:30:00,
2013-09-14 09:35:00,84.6,41.6,29.99,SSE,158,1.0,3.0,22,0.00,,,0.00,Wunderground v.1.15,2013-09-14 16:35:00,
2013-09-14 09:45:00,85.5,41.1,29.98,SSE,158,0.0,3.0,21,0.00,,,0.00,Wunderground v.1.15,2013-09-14 16:45:00,
2013-09-14 09:50:00,85.2,40.8,29.98,SSE,158,1.0,5.0,21,0.00,,,0.00,Wunderground v.1.15,2013-09-14 16:50:00,
2013-09-14 10:00:00,85.2,40.8,29.98,SSE,154,1.0,5.0,21,0.00,,,0.00,Wunderground v.1.15,2013-09-14 17:00:00,
2013-09-14 10:05:00,85.4,41.0,29.98,SE,130,1.0,7.0,21,0.00,,,0.00,Wunderground v.1.15,2013-09-14 17:05:00,
2013-09-14 10:15:00,85.6,39.9,29.98,SE,132,1.0,7.0,20,0.00,,,0.00,Wunderground v.1.15,2013-09-14 17:15:00,
2013-09-14 10:20:00,85.6,41.2,29.98,SE,135,2.0,7.0,21,0.00,,,0.00,Wunderground v.1.15,2013-09-14 17:20:00,
2013-09-14 10:25:00,85.9,40.2,29.98,SE,139,2.0,7.0,20,0.00,,,0.00,Wunderground v.1.15,2013-09-14 17:25:00,
2013-09-14 10:30:00,85.8,40.1,29.98,SE,142,3.0,7.0,20,0.00,,,0.00,Wunderground v.1.15,2013-09-14 17:30:00,
2013-09-14 10:35:00,86.3,40.5,29.98,SSE,151,3.0,8.0,20,0.00,,,0.00,Wunderground v.1.15,2013-09-14 17:35:00,
2013-09-14 10:45:00,86.6,39.4,29.98,SE,138,2.0,3.0,19,0.00,,,0.00,Wunderground v.1.15,2013-09-14 17:45:00,
2013-09-14 10:50:00,86.8,39.6,29.98,SE,135,3.0,8.0,19,0.00,,,0.00,Wunderground v.1.15,2013-09-14 17:50:00,
2013-09-14 11:00:00,87.4,40.1,29.98,SE,143,3.0,3.0,19,0.00,,,0.00,Wunderground v.1.15,2013-09-14 18:00:00,
2013-09-14 11:05:00,87.5,40.2,29.98,SSE,152,3.0,8.0,19,0.00,,,0.00,Wunderground v.1.15,2013-09-14 18:05:00,
2013-09-14 11:10:00,87.4,38.7,29.98,SSE,155,3.0,3.0,18,0.00,,,0.00,Wunderground v.1.15,2013-09-14 18:10:00,
2013-09-14 11:15:00,87.3,38.6,29.98,SSE,165,3.0,8.0,18,0.00,,,0.00,Wunderground v.1.15,2013-09-14 18:15:00,
2013-09-14 11:20:00,87.2,38.5,29.97,South,182,3.0,3.0,18,0.00,,,0.00,Wunderground v.1.15,2013-09-14 18:20:00,
2013-09-14 11:30:00,87.8,39.0,29.97,ESE,121,3.0,9.0,18,0.00,,,0.00,Wunderground v.1.15,2013-09-14 18:30:00,
2013-09-14 11:35:00,87.7,38.9,29.97,ESE,118,3.0,11.0,18,0.00,,,0.00,Wunderground v.1.15,2013-09-14 18:35:00,
2013-09-14 11:45:00,88.2,40.7,29.97,SSE,153,3.0,11.0,19,0.00,,,0.00,Wunderground v.1.15,2013-09-14 18:45:00,
2013-09-14 11:50:00,89.2,40.1,29.97,South,188,1.0,11.0,18,0.00,,,0.00,Wunderground v.1.15,2013-09-14 18:50:00,
2013-09-14 11:55:00,88.7,38.3,29.97,SSE,154,3.0,11.0,17,0.00,,,0.00,Wunderground v.1.15,2013-09-14 18:55:00,
2013-09-14 12:05:00,88.5,41.0,29.97,SSW,204,3.0,5.0,19,0.00,,,0.00,Wunderground v.1.15,2013-09-14 19:05:00,
2013-09-14 12:15:00,88.5,41.0,29.97,SSE,148,4.0,11.0,19,0.00,,,0.00,Wunderground v.1.15,2013-09-14 19:15:00,
2013-09-14 12:20:00,88.8,41.2,29.96,South,179,2.0,13.0,19,0.00,,,0.00,Wunderground v.1.15,2013-09-14 19:20:00,
2013-09-14 12:30:00,89.5,41.8,29.96,SSE,166,3.0,13.0,19,0.00,,,0.00,Wunderground v.1.15,2013-09-14 19:30:00,
2013-09-14 12:35:00,90.0,42.2,29.96,SSE,154,3.0,13.0,19,0.00,,,0.00,Wunderground v.1.15,2013-09-14 19:35:00,
2013-09-14 12:45:00,89.3,41.6,29.96,SSE,166,5.0,13.0,19,0.00,,,0.00,Wunderground v.1.15,2013-09-14 19:45:00,
2013-09-14 12:50:00,89.8,42.0,29.95,SSW,207,4.0,4.0,19,0.00,,,0.00,Wunderground v.1.15,2013-09-14 19:50:00,
2013-09-14 13:00:00,90.0,40.8,29.95,SE,144,3.0,13.0,18,0.00,,,0.00,Wunderground v.1.15,2013-09-14 20:00:00,
2013-09-14 13:10:00,89.2,41.5,29.95,ESE,105,5.0,5.0,19,0.00,,,0.00,Wunderground v.1.15,2013-09-14 20:10:00,
2013-09-14 13:15:00,89.7,42.0,29.95,SSW,211,4.0,9.0,19,0.00,,,0.00,Wunderground v.1.15,2013-09-14 20:15:00,
2013-09-14 13:20:00,90.1,40.9,29.94,South,173,5.0,15.0,18,0.00,,,0.00,Wunderground v.1.15,2013-09-14 20:20:00,
2013-09-14 13:30:00,89.6,41.9,29.94,ESE,108,4.0,4.0,19,0.00,,,0.00,Wunderground v.1.15,2013-09-14 20:30:00,
2013-09-14 13:35:00,89.6,41.9,29.93,SE,137,4.0,15.0,19,0.00,,,0.00,Wunderground v.1.15,2013-09-14 20:35:00,
2013-09-14 13:45:00,90.0,40.8,29.93,SE,144,4.0,15.0,18,0.00,,,0.00,Wunderground v.1.15,2013-09-14 20:45:00,
2013-09-14 13:50:00,90.8,41.4,29.93,SSE,157,5.0,5.0,18,0.00,,,0.00,Wunderground v.1.15,2013-09-14 20:50:00,
2013-09-14 13:55:00,90.6,41.3,29.93,South,173,6.0,7.0,18,0.00,,,0.00,Wunderground v.1.15,2013-09-14 20:55:00,
2013-09-14 14:00:00,90.6,41.3,29.93,SE,143,5.0,12.0,18,0.00,,,0.00,Wunderground v.1.15,2013-09-14 21:00:00,
2013-09-14 14:05:00,89.7,40.6,29.92,SE,132,5.0,12.0,18,0.00,,,0.00,Wunderground v.1.15,2013-09-14 21:05:00,
2013-09-14 14:15:00,90.4,41.1,29.92,East,98,3.0,12.0,18,0.00,,,0.00,Wunderground v.1.15,2013-09-14 21:15:00,
2013-09-14 14:20:00,90.3,41.0,29.92,South,170,3.0,12.0,18,0.00,,,0.00,Wunderground v.1.15,2013-09-14 21:20:00,
2013-09-14 14:30:00,90.4,41.1,29.92,SE,129,3.0,12.0,18,0.00,,,0.00,Wunderground v.1.15,2013-09-14 21:30:00,
2013-09-14 14:35:00,90.6,41.3,29.91,SSE,148,3.0,12.0,18,0.00,,,0.00,Wunderground v.1.15,2013-09-14 21:35:00,
2013-09-14 14:40:00,90.5,41.2,29.92,SSE,155,4.0,12.0,18,0.00,,,0.00,Wunderground v.1.15,2013-09-14 21:40:00,
2013-09-14 14:45:00,90.5,41.2,29.91,SSE,154,4.0,12.0,18,0.00,,,0.00,Wunderground v.1.15,2013-09-14 21:45:00,
2013-09-14 14:55:00,90.5,41.2,29.91,SSE,158,3.0,12.0,18,0.00,,,0.00,Wunderground v.1.15,2013-09-14 21:55:00,
2013-09-14 15:00:00,90.9,41.5,29.91,SW,227,3.0,3.0,18,0.00,,,0.00,Wunderground v.1.15,2013-09-14 22:00:00,
2013-09-14 15:05:00,91.1,40.2,29.91,South,178,4.0,4.0,17,0.00,,,0.00,Wunderground v.1.15,2013-09-14 22:05:00,
2013-09-14 15:15:00,90.6,41.3,29.91,SSE,151,2.0,13.0,18,0.00,,,0.00,Wunderground v.1.15,2013-09-14 22:15:00,
2013-09-14 15:20:00,90.3,41.0,29.90,SE,126,2.0,2.0,18,0.00,,,0.00,Wunderground v.1.15,2013-09-14 22:20:00,
2013-09-14 15:25:00,90.4,41.1,29.90,East,84,2.0,13.0,18,0.00,,,0.00,Wunderground v.1.15,2013-09-14 22:25:00,
2013-09-14 15:35:00,91.0,41.6,29.90,South,190,0.0,13.0,18,0.00,,,0.00,Wunderground v.1.15,2013-09-14 22:35:00,
2013-09-14 15:40:00,91.0,40.1,29.90,WSW,244,2.0,2.0,17,0.00,,,0.00,Wunderground v.1.15,2013-09-14 22:40:00,
2013-09-14 15:45:00,90.6,41.3,29.90,SW,222,4.0,4.0,18,0.00,,,0.00,Wunderground v.1.15,2013-09-14 22:45:00,
2013-09-14 15:50:00,90.2,41.0,29.90,South,170,3.0,3.0,18,0.00,,,0.00,Wunderground v.1.15,2013-09-14 22:50:00,
2013-09-14 16:00:00,89.5,41.8,29.90,SE,135,1.0,7.0,19,0.00,,,0.00,Wunderground v.1.15,2013-09-14 23:00:00,
2013-09-14 16:05:00,89.3,41.6,29.90,ESE,118,2.0,7.0,19,0.00,,,0.00,Wunderground v.1.15,2013-09-14 23:05:00,
2013-09-14 16:10:00,89.2,41.5,29.90,East,94,3.0,3.0,19,0.00,,,0.00,Wunderground v.1.15,2013-09-14 23:10:00,
2013-09-14 16:20:00,89.7,42.0,29.89,SW,228,3.0,9.0,19,0.00,,,0.00,Wunderground v.1.15,2013-09-14 23:20:00,
2013-09-14 16:30:00,90.4,41.1,29.89,SSE,167,2.0,9.0,18,0.00,,,0.00,Wunderground v.1.15,2013-09-14 23:30:00,
2013-09-14 16:35:00,90.4,41.1,29.89,South,179,3.0,9.0,18,0.00,,,0.00,Wunderground v.1.15,2013-09-14 23:35:00,
2013-09-14 16:45:00,90.3,41.0,29.89,SSE,158,3.0,8.0,18,0.00,,,0.00,Wunderground v.1.15,2013-09-14 23:45:00,
2013-09-14 16:50:00,90.6,41.3,29.89,West,271,4.0,4.0,18,0.00,,,0.00,Wunderground v.1.15,2013-09-14 23:50:00,
2013-09-14 16:55:00,91.0,40.1,29.89,West,268,3.0,8.0,17,0.00,,,0.00,Wunderground v.1.15,2013-09-14 23:55:00,
2013-09-14 17:05:00,90.9,41.5,29.89,WSW,241,3.0,8.0,18,0.00,,,0.00,Wunderground v.1.15,2013-09-15 00:05:00,
2013-09-14 17:10:00,90.7,41.4,29.90,SSW,210,4.0,8.0,18,0.00,,,0.00,Wunderground v.1.15,2013-09-15 00:10:00,
2013-09-14 17:15:00,90.5,41.2,29.90,SW,231,3.0,8.0,18,0.00,,,0.00,Wunderground v.1.15,2013-09-15 00:15:00,
2013-09-14 17:20:00,91.3,40.4,29.90,NNW,342,1.0,1.0,17,0.00,,,0.00,Wunderground v.1.15,2013-09-15 00:20:00,
2013-09-14 17:30:00,91.6,39.1,29.90,WNW,290,0.0,12.0,16,0.00,,,0.00,Wunderground v.1.15,2013-09-15 00:30:00,
2013-09-14 17:35:00,91.3,38.8,29.90,WSW,258,1.0,12.0,16,0.00,,,0.00,Wunderground v.1.15,2013-09-15 00:35:00,
2013-09-14 17:45:00,90.7,38.3,29.90,WNW,300,4.0,9.0,16,0.00,,,0.00,Wunderground v.1.15,2013-09-15 00:45:00,
2013-09-14 17:50:00,90.3,39.6,29.90,WNW,291,3.0,3.0,17,0.00,,,0.00,Wunderground v.1.15,2013-09-15 00:50:00,
2013-09-14 18:00:00,89.6,39.0,29.90,WNW,283,4.0,9.0,17,0.00,,,0.00,Wunderground v.1.15,2013-09-15 01:00:00,
2013-09-14 18:10:00,89.1,38.6,29.90,WNW,299,4.0,4.0,17,0.00,,,0.00,Wunderground v.1.15,2013-09-15 01:10:00,
2013-09-14 18:20:00,88.7,39.7,29.90,NW,306,2.0,12.0,18,0.00,,,0.00,Wunderground v.1.15,2013-09-15 01:20:00,
2013-09-14 18:30:00,88.2,39.3,29.90,WNW,283,3.0,12.0,18,0.00,,,0.00,Wunderground v.1.15,2013-09-15 01:30:00,
2013-09-14 18:35:00,87.9,39.1,29.90,WNW,301,3.0,12.0,18,0.00,,,0.00,Wunderground v.1.15,2013-09-15 01:35:00,
2013-09-14 18:40:00,87.6,38.8,29.90,WNW,289,3.0,12.0,18,0.00,,,0.00,Wunderground v.1.15,2013-09-15 01:40:00,
2013-09-14 18:45:00,87.3,40.0,29.90,West,279,3.0,12.0,19,0.00,,,0.00,Wunderground v.1.15,2013-09-15 01:45:00,
2013-09-14 18:55:00,86.7,39.5,29.90,WNW,287,2.0,6.0,19,0.00,,,0.00,Wunderground v.1.15,2013-09-15 01:55:00,
2013-09-14 19:00:00,86.3,39.2,29.90,WNW,287,2.0,6.0,19,0.00,,,0.00,Wunderground v.1.15,2013-09-15 02:00:00,
2013-09-14 19:05:00,86.0,38.9,29.90,West,278,2.0,7.0,19,0.00,,,0.00,Wunderground v.1.15,2013-09-15 02:05:00,
2013-09-14 19:15:00,85.4,39.8,29.91,West,274,3.0,7.0,20,0.00,,,0.00,Wunderground v.1.15,2013-09-15 02:15:00,
2013-09-14 19:20:00,85.1,39.5,29.91,West,273,3.0,3.0,20,0.00,,,0.00,Wunderground v.1.15,2013-09-15 02:20:00,
2013-09-14 19:30:00,84.6,40.4,29.91,West,268,3.0,7.0,21,0.00,,,0.00,Wunderground v.1.15,2013-09-15 02:30:00,
2013-09-14 19:35:00,84.4,40.2,29.91,WNW,298,3.0,7.0,21,0.00,,,0.00,Wunderground v.1.15,2013-09-15 02:35:00,
2013-09-14 19:45:00,83.9,39.8,29.92,NW,309,3.0,4.0,21,0.00,,,0.00,Wunderground v.1.15,2013-09-15 02:45:00,
2013-09-14 19:50:00,84.1,39.9,29.92,WNW,296,5.0,7.0,21,0.00,,,0.00,Wunderground v.1.15,2013-09-15 02:50:00,
2013-09-14 20:00:00,84.3,40.1,29.92,WNW,301,5.0,7.0,21,0.00,,,0.00,Wunderground v.1.15,2013-09-15 03:00:00,
2013-09-14 20:05:00,84.4,40.2,29.93,NW,312,5.0,7.0,21,0.00,,,0.00,Wunderground v.1.15,2013-09-15 03:05:00,
2013-09-14 20:15:00,84.4,41.4,29.93,WNW,302,4.0,7.0,22,0.00,,,0.00,Wunderground v.1.15,2013-09-15 03:15:00,
2013-09-14 20:20:00,84.2,41.2,29.93,NW,314,5.0,5.0,22,0.00,,,0.00,Wunderground v.1.15,2013-09-15 03:20:00,
2013-09-14 20:30:00,83.9,41.0,29.94,WNW,292,3.0,12.0,22,0.00,,,0.00,Wunderground v.1.15,2013-09-15 03:30:00,
2013-09-14 20:35:00,83.7,42.0,29.94,WNW,291,3.0,12.0,23,0.00,,,0.00,Wunderground v.1.15,2013-09-15 03:35:00,
2013-09-14 20:45:00,83.3,42.7,29.94,NW,305,3.0,10.0,24,0.00,,,0.00,Wunderground v.1.15,2013-09-15 03:45:00,
2013-09-14 20:50:00,83.1,41.5,29.94,WNW,297,2.0,10.0,23,0.00,,,0.00,Wunderground v.1.15,2013-09-15 03:50:00,
2013-09-14 21:00:00,83.0,41.4,29.94,WNW,301,2.0,10.0,23,0.00,,,0.00,Wunderground v.1.15,2013-09-15 04:00:00,
2013-09-14 21:05:00,82.8,41.2,29.94,WNW,290,2.0,10.0,23,0.00,,,0.00,Wunderground v.1.15,2013-09-15 04:05:00,
2013-09-14 21:10:00,82.8,41.2,29.94,NW,306,2.0,2.0,23,0.00,,,0.00,Wunderground v.1.15,2013-09-15 04:10:00,
2013-09-14 21:15:00,82.6,41.0,29.94,WNW,297,2.0,7.0,23,0.00,,,0.00,Wunderground v.1.15,2013-09-15 04:15:00,
2013-09-14 21:20:00,82.6,42.1,29.94,NW,308,2.0,2.0,24,0.00,,,0.00,Wunderground v.1.15,2013-09-15 04:20:00,
2013-09-14 21:25:00,82.7,41.1,29.94,WNW,289,2.0,4.0,23,0.00,,,0.00,Wunderground v.1.15,2013-09-15 04:25:00,
2013-09-14 21:30:00,82.7,42.2,29.94,West,281,2.0,2.0,24,0.00,,,0.00,Wunderground v.1.15,2013-09-15 04:30:00,
2013-09-14 21:35:00,82.4,42.0,29.94,West,278,2.0,7.0,24,0.00,,,0.00,Wunderground v.1.15,2013-09-15 04:35:00,
2013-09-14 21:40:00,82.5,41.0,29.94,WNW,298,3.0,7.0,23,0.00,,,0.00,Wunderground v.1.15,2013-09-15 04:40:00,
2013-09-14 21:45:00,82.8,41.2,29.94,WNW,296,3.0,7.0,23,0.00,,,0.00,Wunderground v.1.15,2013-09-15 04:45:00,
2013-09-14 21:55:00,82.2,40.7,29.94,West,277,1.0,8.0,23,0.00,,,0.00,Wunderground v.1.15,2013-09-15 04:55:00,
2013-09-14 22:00:00,81.3,41.0,29.95,West,276,0.0,8.0,24,0.00,,,0.00,Wunderground v.1.15,2013-09-15 05:00:00,
2013-09-14 22:05:00,80.6,41.5,29.95,WNW,285,0.0,8.0,25,0.00,,,0.00,Wunderground v.1.15,2013-09-15 05:05:00,
2013-09-14 22:15:00,80.9,40.7,29.95,NW,316,0.0,7.0,24,0.00,,,0.00,Wunderground v.1.15,2013-09-15 05:15:00,
2013-09-14 22:20:00,81.2,39.9,29.95,NW,318,0.0,7.0,23,0.00,,,0.00,Wunderground v.1.15,2013-09-15 05:20:00,
2013-09-14 22:25:00,81.0,40.8,29.95,NW,318,0.0,7.0,24,0.00,,,0.00,Wunderground v.1.15,2013-09-15 05:25:00,
2013-09-14 22:30:00,80.0,41.0,29.95,NW,318,0.0,7.0,25,0.00,,,0.00,Wunderground v.1.15,2013-09-15 05:30:00,
2013-09-14 22:35:00,79.3,40.4,29.95,NW,314,0.0,7.0,25,0.00,,,0.00,Wunderground v.1.15,2013-09-15 05:35:00,
2013-09-14 22:45:00,78.7,40.9,29.95,NW,314,0.0,4.0,26,0.00,,,0.00,Wunderground v.1.15,2013-09-15 05:45:00,
2013-09-14 22:50:00,78.4,40.7,29.95,NW,314,0.0,4.0,26,0.00,,,0.00,Wunderground v.1.15,2013-09-15 05:50:00,
2013-09-14 23:00:00,78.1,39.4,29.95,NW,314,0.0,4.0,25,0.00,,,0.00,Wunderground v.1.15,2013-09-15 06:00:00,
2013-09-14 23:05:00,77.9,39.2,29.95,NW,314,0.0,4.0,25,0.00,,,0.00,Wunderground v.1.15,2013-09-15 06:05:00,
2013-09-14 23:15:00,77.5,38.9,29.95,West,266,0.0,4.0,25,0.00,,,0.00,Wunderground v.1.15,2013-09-15 06:15:00,
2013-09-14 23:20:00,77.7,39.1,29.95,West,266,0.0,0.0,25,0.00,,,0.00,Wunderground v.1.15,2013-09-15 06:20:00,
2013-09-14 23:30:00,77.7,39.1,29.95,NNW,336,0.0,0.0,25,0.00,,,0.00,Wunderground v.1.15,2013-09-15 06:30:00,
2013-09-14 23:35:00,77.6,39.0,29.95,NW,322,1.0,1.0,25,0.00,,,0.00,Wunderground v.1.15,2013-09-15 06:35:00,
2013-09-14 23:40:00,77.5,39.9,29.95,NW,322,0.0,0.0,26,0.00,,,0.00,Wunderground v.1.15,2013-09-15 06:40:00,
2013-09-14 23:50:00,77.8,39.1,29.95,NW,322,0.0,4.0,25,0.00,,,0.00,Wunderground v.1.15,2013-09-15 06:50:00,